Probability
0 0 0 0 0 0 0 0 0 0 0 0 0 0 0 0 0 0 0 0 0 0 0 0 0 0 0 0 0 0 0 0 0 0 0 0 0 0 0 0 0 0 0 0
0 0 0 0 0 0 0 0 0 0 0 0 0 0 0 0 0 0 0 0 0 0 0 0 0 0 0 0 0 0 0 0 0 0 0 0 0 0 0 0 0 0 0 0
0 0 0 0 0 0 0 0 0 0 0 0 0 0 0 0 0 0 0 0 0 0 0 0 0 0 0 0 0 0 0 0 0 0 0 0 0 0 0 0 0 0 0 0
0 0 0 0 0 0 0 0 0 0 0 0 0 0 0 0 0 0 0 0 0 0 0 0 0 0 0 0 0 0 0 0 0 0 0 0 0 0 0 0 0 0 0 0
0 0 0 0 0 0 0 0 0 0 0 0 0 0 0 0 0 0 0 0 0 0 0 0 0 0 0 0 0 0 0 0 0 0 0 0 0 0 0 0 0 0 0 0
0 0 0 0 0 0 0 0 0 0 0 0 0 0 0 0 0 0 0 0 0 0 0 0 0 0 0 0 0 0 0 0 0 0 0 0 0 0 0 0 0 0 0 0
0 0 0 0 0 0 0 0 0 0 0 0 0 0 0 0 0 0 0 0 0 0 0 0 0 0 0 0 0 0 0 0 0 0 0 0 0 0 0 0 0 0 0 0
0 0 0 0 0 0 0 0 0 0 0 0 0 0 0 0 0 0 0 0 0 0 0 0 0 0 0 0 0 0 0 0 0 0 0 0 0 0 0 0 0 0 0 0
0 0 0 0 0 0 0 0 0 0 0 0 0 0 0 0 0 0 0 0 0 0 0 0 0 0 0 0 0 0 0 0 0 0 0 0 0 0 0 0 0 0 0 0
0 0 0 0 0 0 0 0 0 0 0 0 0 0 0 0 0 0 0 0 0 0 0 0 0 0 0 0 0 0 0 0 0 0 0 0 0 0 0 0 0 0 0 0
0 0 0 0 0 0 0 0 0 0 0 0 0 0 0 0 0 0 0 0 0 0 0 0 0 0 0 0 0 0 0 0 0 0 0 0 0 0 0 0 0 0 0 0
0 0 0 0 0 0 0 0 0 0 0 0 0 0 0 0 0 0 0 0 0 0 0 0 0 0 0 0 0 0 0 0 0 0 0 0 0 0 0 0 0 0 0 0
0 0 0 0 0 0 0 0 0 0 0 0 0 0 0 0 0 0 0 0 0 0 0 0 0 0 0 0 0 0 0 0 0 0 0 0 0 0 0 0 0 0 0 0
0 0 0 0 0 0 0 0 0 0 0 0 0 0 0 0 0 0 0 0 0 0 0 0 0 0 0 0 0 0 0 0 0 0 0 0 0 0 0 0 0 0 0 0
0 0 0 0 0 0 0 0 0 0 0 0 0 0 0 0 0 0 0 0 0 0 0 0 0 0 0 0 0 0 0 0 0 0 0 0 0 0 0 0 0 0 0 0
0 0 0 0 0 0 0 0 0 0 0 0 0 0 0 0 0 0 0 0 0 0 0 0 0 0 0 0 0 0 0 0 0 0 0 0 0 0 0 0 0 0 0 0
0 0 0 0 0 0 0 0 0 0 0 0 0 0 0 0 0 0 0 0 0 0 0 0 0 0 0 0 0 0 0 0 0 0 0 0 0 0 0 0 0 0 0 0
0 0 0 0 0 0 0 0 0 0 0 0 0 0 0 0 0 0 0 0 0 0 0 0 0 0 0 0 0 0 0 0 0 0 0 0 0 0 0 0 0 0 0 0
0 0 0 0 0 0 0 0 0 0 0 0 0 0 0 0 0 0 0 0 0 0 0 0 0 0 0 0 0 0 0 0 0 0 0 0 0 0 0 0 0 0 0 0
0 0 0 0 0 0 0 0 0 0 0 0 0 0 0 0 0 0 0 0 0 0 0 0 0 0 0 0 0 0 0 0 0 0 0 0 0 0 0 0 0 0 0 0
0 0 0 0 0 0 0 0 0 0 0 0 0 0 0 0 0 0 0 0 0 0 0 0 0 0 0 0 0 0 0 0 0 0 0 0 0 0 0 0 0 0 0 0
0 0 0 0 0 0 0 0 0 0 0 0 0 0 0 0 0 0 0 0 0 0 0 0 0 0 0 0 0 0 0 0 0 0 0 0 0 0 0 0 0 0 0 0
0 0 0 0 0 0 0 0 0 0 0 0 0 0 0 0 0 0 0 0 0 0 0 0 0 0 0 0 0 0 0 0 0 0 0 0 0 0 0 0 0 0 0 0
0 0 0 0 0 0 0 0 0 0 0 0 0 0 0 0 0 0 0 0 0 0 0 0 0 0 0 0 0 0 0 0 0 0 0 0 0 0 0 0 0 0 0 0
0 0 0 0 0 0 0 0 0 0 0 0 0 0 0 0 0 0 0 0 0 0 0 0 0 0 0 0 0 0 0 0 0 0 0 0 0 0 0 0 0 0 0 0
0 0 0 0 0 0 0 0 0 0 0 0 0 0 0 0 0 0 0 0 0 0 0 0 0 0 0 0 0 0 0 0 0 0 0 0 0 0 0 0 0 0 0 0
Height
5712 5710 5707 5704 5701 5698 5695 5692 5690 5688 5685 5683 5680 5679 5677 5674 5672 5670 5668 5666 5664 5663 5662 5661 5660 5660 5660 5659 5659 5658 5658 5659 5659 5661 5663 5665 5669 5672 5675 5679 5683 5688 5692 5697
5706 5703 5700 5697 5694 5691 5687 5684 5682 5680 5677 5674 5672 5670 5668 5665 5663 5661 5658 5656 5654 5653 5651 5650 5649 5649 5648 5648 5647 5646 5646 5646 5647 5648 5651 5653 5656 5659 5663 5667 5671 5675 5680 5685
5698 5696 5693 5689 5686 5683 5680 5677 5674 5671 5669 5666 5663 5661 5659 5656 5653 5651 5648 5646 5644 5642 5641 5640 5639 5638 5638 5636 5635 5634 5634 5634 5635 5636 5638 5641 5644 5647 5651 5654 5659 5663 5668 5672
5690 5688 5685 5682 5678 5675 5672 5669 5666 5663 5660 5657 5655 5651 5651 5647 5644 5641 5639 5637 5635 5633 5631 5630 5628 5628 5627 5625 5624 5623 5622 5622 5623 5624 5626 5629 5632 5635 5639 5643 5647 5651 5655 5660
5682 5680 5677 5673 5671 5667 5664 5661 5658 5655 5651 5649 5646 5642 5642 5639 5636 5633 5630 5628 5626 5624 5622 5620 5619 5617 5615 5613 5612 5612 5611 5611 5611 5612 5614 5616 5619 5623 5627 5630 5634 5639 5643 5647
5674 5671 5668 5665 5662 5658 5655 5652 5649 5646 5643 5641 5638 5634 5632 5630 5627 5625 5622 5619 5617 5615 5613 5611 5609 5607 5604 5602 5601 5601 5600 5600 5600 5601 5602 5604 5607 5610 5614 5618 5622 5627 5631 5635
5665 5662 5659 5656 5653 5650 5647 5644 5640 5636 5634 5632 5629 5626 5625 5622 5619 5616 5614 5611 5608 5606 5604 5601 5600 5597 5595 5592 5591 5590 5590 5589 5589 5589 5590 5592 5595 5598 5602 5606 5611 5615 5619 5623
5655 5653 5650 5647 5644 5641 5638 5635 5632 5628 5625 5624 5621 5617 5617 5613 5611 5608 5605 5603 5601 5598 5595 5593 5591 5588 5585 5583 5581 5580 5579 5579 5579 5579 5580 5581 5584 5587 5591 5595 5598 5602 5606 5610
5645 5644 5641 5638 5634 5632 5629 5626 5624 5620 5616 5614 5612 5609 5608 5605 5602 5600 5597 5595 5592 5589 5587 5584 5582 5579 5576 5573 5572 5570 5569 5568 5568 5569 5569 5571 5573 5577 5580 5583 5586 5590 5594 5597
5635 5633 5632 5629 5626 5623 5620 5617 5614 5611 5607 5604 5603 5601 5599 5596 5594 5591 5589 5586 5584 5581 5578 5576 5573 5570 5567 5565 5562 5560 5558 5558 5558 5559 5560 5562 5564 5566 5569 5571 5575 5578 5581 5585
5626 5624 5622 5619 5616 5613 5611 5608 5604 5602 5599 5596 5593 5595 5591 5587 5584 5582 5580 5578 5575 5573 5570 5567 5564 5561 5558 5555 5553 5551 5549 5549 5549 5550 5551 5553 5554 5556 5558 5561 5564 5567 5569 5573
5616 5613 5611 5609 5606 5603 5600 5598 5596 5594 5590 5587 5584 5587 5582 5579 5576 5573 5571 5569 5567 5564 5561 5558 5555 5552 5550 5547 5544 5542 5541 5540 5540 5541 5542 5543 5545 5546 5548 5550 5553 5556 5559 5562
5606 5603 5600 5599 5598 5594 5591 5588 5586 5583 5581 5578 5576 5579 5574 5570 5567 5565 5562 5560 5558 5556 5553 5550 5547 5544 5541 5539 5536 5535 5533 5532 5532 5532 5533 5534 5535 5537 5538 5541 5543 5546 5548 5551
5595 5593 5591 5589 5585 5583 5581 5579 5576 5574 5571 5570 5568 5568 5565 5561 5558 5556 5554 5551 5549 5547 5544 5542 5539 5536 5533 5530 5529 5527 5526 5525 5525 5524 5525 5525 5526 5527 5529 5531 5533 5536 5538 5541
5586 5584 5581 5579 5576 5573 5572 5570 5568 5565 5563 5561 5560 5557 5555 5552 5550 5547 5545 5543 5540 5538 5535 5533 5530 5528 5525 5522 5520 5519 5518 5517 5516 5516 5516 5517 5517 5519 5520 5522 5524 5526 5528 5531
5577 5575 5572 5571 5568 5565 5563 5562 5559 5557 5555 5552 5550 5549 5546 5543 5541 5539 5536 5534 5532 5529 5527 5524 5522 5519 5517 5514 5512 5510 5509 5508 5508 5508 5508 5508 5509 5510 5511 5513 5515 5517 5519 5521
5569 5566 5564 5561 5559 5556 5555 5554 5551 5548 5546 5544 5541 5540 5537 5535 5532 5529 5527 5525 5522 5520 5518 5515 5513 5510 5508 5505 5503 5502 5501 5500 5500 5499 5499 5499 5500 5502 5503 5504 5506 5507 5509 5511
5561 5558 5555 5552 5551 5548 5550 5545 5543 5540 5538 5535 5533 5530 5528 5525 5523 5520 5517 5515 5513 5511 5509 5506 5504 5502 5500 5497 5495 5494 5493 5492 5491 5491 5491 5491 5492 5493 5494 5495 5496 5498 5499 5501
5553 5550 5546 5544 5541 5539 5540 5537 5534 5531 5529 5527 5524 5522 5519 5516 5514 5512 5508 5506 5503 5501 5499 5497 5495 5493 5491 5489 5487 5486 5485 5484 5483 5482 5482 5483 5483 5484 5485 5486 5487 5488 5490 5491
5545 5542 5539 5536 5533 5531 5532 5528 5524 5523 5521 5518 5515 5512 5510 5507 5505 5504 5499 5497 5495 5493 5491 5489 5486 5484 5482 5480 5479 5477 5476 5476 5475 5474 5474 5474 5475 5476 5477 5478 5478 5479 5480 5481
5537 5534 5531 5528 5524 5523 5522 5519 5516 5515 5513 5509 5506 5503 5501 5498 5496 5494 5490 5488 5486 5484 5482 5480 5478 5476 5474 5472 5470 5469 5468 5467 5466 5466 5466 5466 5467 5467 5468 5469 5469 5469 5470 5470
5528 5526 5523 5520 5517 5517 5513 5510 5508 5505 5502 5499 5496 5494 5491 5489 5486 5484 5481 5479 5477 5475 5473 5471 5469 5467 5465 5463 5462 5461 5459 5458 5458 5458 5458 5458 5458 5459 5459 5459 5459 5459 5459 5460
5520 5518 5514 5512 5511 5507 5503 5500 5498 5495 5493 5490 5487 5485 5482 5480 5477 5475 5473 5471 5468 5466 5464 5462 5460 5458 5456 5454 5453 5452 5451 5450 5450 5450 5450 5450 5449 5450 5450 5450 5450 5449 5449 5449
5512 5509 5505 5503 5501 5498 5495 5491 5488 5485 5483 5480 5477 5475 5472 5470 5468 5466 5463 5462 5460 5458 5455 5453 5451 5449 5448 5446 5445 5444 5443 5442 5442 5442 5441 5441 5441 5441 5441 5440 5440 5440 5439 5439
5503 5500 5497 5494 5492 5489 5487 5483 5480 5476 5473 5470 5468 5465 5462 5460 5458 5456 5454 5452 5450 5448 5446 5444 5442 5441 5439 5438 5437 5436 5435 5434 5434 5433 5433 5433 5432 5432 5431 5431 5430 5430 5429 5428
5495 5491 5488 5486 5483 5480 5478 5474 5471 5468 5465 5462 5458 5456 5453 5451 5449 5447 5445 5443 5441 5439 5437 5435 5434 5432 5431 5430 5429 5428 5427 5427 5426 5425 5425 5424 5423 5422 5422 5421 5421 5419 5419 5418
Wind_Speed
26 26 27 27 28 28 29 29 29 28 29 29 30 30 29 30 30 31 32 34 35 36 36 37 38 38 38 38 39 40 41 41 42 43 44 44 44 46 48 49 49 48 47 48
27 26 27 27 28 28 29 29 29 29 29 30 29 28 28 30 31 31 33 34 35 35 36 36 37 37 37 38 39 40 41 42 42 42 43 44 44 45 46 47 48 49 48 47
28 28 27 28 29 29 30 30 30 30 30 30 30 28 27 28 30 30 31 33 34 35 35 35 35 35 36 38 39 40 41 42 42 42 43 43 44 44 44 46 47 48 48 48
28 29 29 29 29 29 30 30 30 30 30 30 30 30 26 27 28 29 30 31 32 33 33 34 34 34 36 37 37 38 39 39 41 42 43 44 44 44 44 45 47 48 48 48
29 30 30 30 30 30 30 30 30 30 30 30 29 30 27 27 27 28 29 30 30 30 31 32 32 33 35 36 36 37 37 38 39 41 43 44 45 45 45 46 46 47 48 47
31 31 31 31 31 30 31 31 31 30 30 30 28 30 29 27 27 27 27 27 28 28 29 30 30 32 34 34 35 35 36 37 38 40 42 43 44 46 46 46 46 47 47 47
31 31 31 31 31 31 31 30 30 30 29 29 29 30 29 28 27 27 27 27 27 28 29 30 30 31 32 32 33 35 36 36 38 39 40 41 43 44 44 45 46 47 47 47
32 31 31 31 31 31 31 31 30 32 32 31 30 30 30 29 28 28 28 28 28 28 29 29 30 31 30 31 32 34 34 35 36 37 38 40 42 43 43 44 46 47 47 48
32 32 31 31 31 31 32 31 31 32 33 33 31 31 30 30 29 27 27 27 28 29 29 29 29 30 30 31 32 33 33 34 35 36 37 39 41 42 43 44 45 46 46 47
33 34 33 32 32 31 32 32 31 32 34 34 33 32 31 30 30 28 27 27 28 28 28 29 30 30 30 31 32 32 33 33 34 35 36 37 39 41 42 43 43 44 45 45
34 34 34 34 33 31 31 32 32 33 33 34 35 33 33 32 31 30 29 28 29 28 29 29 30 31 30 31 31 32 32 33 34 34 36 37 38 39 41 42 42 43 44 44
34 34 34 34 34 32 32 32 32 33 33 33 34 33 32 31 31 30 30 29 29 29 29 30 31 32 32 31 31 31 31 32 33 34 35 36 38 39 40 41 42 43 44 44
34 35 34 34 33 33 32 31 32 32 32 33 33 32 32 31 31 31 30 30 29 30 30 31 31 31 31 30 30 31 31 31 32 33 35 36 37 38 39 40 40 41 41 43
34 34 34 33 32 32 31 31 31 31 31 32 32 31 31 31 31 31 31 30 31 31 31 31 31 31 31 30 31 31 31 31 32 33 34 35 36 37 38 39 40 40 41 42
33 33 32 31 31 30 30 30 30 30 30 31 30 30 30 30 31 31 31 31 31 31 31 31 31 31 31 31 31 31 31 31 31 32 33 34 34 35 37 38 39 40 41 41
32 32 31 30 30 29 29 28 28 29 30 31 31 30 30 31 31 31 31 32 31 31 31 31 30 30 30 31 31 30 30 30 31 31 32 32 33 34 35 36 38 39 40 42
30 31 31 30 29 29 28 27 28 29 30 30 31 31 31 31 31 31 31 32 32 31 30 30 30 30 29 29 30 29 29 30 30 30 31 32 32 33 35 37 38 39 40 42
29 29 29 29 29 30 27 26 27 27 28 29 30 31 31 32 32 32 32 32 32 30 30 29 29 29 29 29 28 28 28 28 29 29 29 30 31 32 32 34 36 38 39 40
28 28 28 28 29 29 27 27 27 27 27 29 30 30 31 31 32 32 32 32 32 31 29 29 28 28 28 28 28 29 28 28 27 28 30 31 31 31 32 33 34 36 39 40
27 28 28 28 28 28 27 27 28 29 29 28 29 29 30 30 30 30 31 31 31 31 30 30 29 28 28 28 28 28 28 29 28 27 28 29 30 31 32 33 33 34 37 40
28 28 28 28 28 29 27 27 27 28 29 30 30 30 30 31 31 30 30 30 31 30 30 30 30 28 28 28 27 28 28 28 28 27 27 27 29 30 32 32 33 34 36 38
28 28 28 28 29 29 29 28 28 29 30 31 32 32 32 31 31 30 30 30 30 30 30 30 30 29 28 26 26 26 26 26 26 25 25 26 27 29 31 31 32 34 35 37
27 27 27 27 28 29 29 29 30 31 31 32 32 32 32 32 32 31 30 30 30 30 29 29 29 29 28 26 25 25 25 25 25 25 25 26 27 28 29 30 31 32 33 35
28 28 28 27 27 28 29 31 31 31 32 32 33 33 33 32 31 30 29 29 30 30 30 29 29 29 29 28 26 25 25 24 24 25 26 27 27 29 30 31 31 31 32 34
28 27 27 28 28 28 28 29 30 30 31 32 31 31 31 32 30 30 29 29 30 30 29 28 28 27 27 26 26 25 25 24 24 25 26 26 27 28 29 31 31 31 32 33
28 28 28 26 27 27 27 28 29 29 30 31 31 31 31 31 30 30 30 29 29 28 28 28 27 26 26 26 25 24 24 24 24 25 26 26 27 27 29 30 30 31 31 32
Wind_Direction
295 295 296 297 297 296 294 292 289 288 287 286 285 284 281 277 275 274 273 272 271 269 269 268 266 266 265 264 263 262 261 259 257 254 252 250 248 247 245 244 243 242 242 242
294 294 296 297 297 296 295 294 292 290 289 288 287 286 282 279 277 275 275 274 273 272 270 268 266 266 266 264 263 262 261 260 258 255 253 250 249 247 246 246 244 242 243 242
293 295 296 297 296 296 295 293 291 291 290 289 288 286 285 281 281 278 277 277 276 274 273 269 266 266 266 265 264 264 263 261 258 255 254 251 248 247 246 245 243 243 243 242
292 294 295 296 296 296 295 293 291 291 291 290 290 289 286 284 283 281 280 279 279 276 273 270 267 267 267 266 265 264 263 261 258 256 254 251 248 246 246 245 244 243 243 243
291 292 294 295 296 295 295 294 291 291 290 290 289 289 287 287 286 284 283 282 281 279 276 272 270 270 269 267 266 265 263 262 259 256 254 252 250 247 246 245 244 243 243 242
290 290 292 293 295 295 295 292 289 289 290 291 290 289 288 289 289 287 285 285 282 281 279 274 273 275 272 269 266 264 263 262 259 256 254 252 250 247 247 245 243 243 243 243
291 291 290 292 292 292 292 292 289 290 291 292 290 288 288 290 291 291 290 286 283 283 281 279 275 277 273 270 266 265 264 261 259 257 254 252 250 248 246 245 244 244 244 245
291 292 291 291 292 292 291 291 289 289 290 291 290 288 289 289 292 292 291 288 285 284 282 280 278 279 276 272 269 268 266 262 261 258 255 253 250 248 246 245 245 244 245 245
293 291 291 291 292 291 291 289 288 287 289 289 290 290 289 289 291 293 291 288 287 285 282 280 280 280 279 276 273 270 267 263 261 259 256 254 251 249 248 247 245 245 245 245
293 292 291 291 290 290 290 290 288 287 289 289 288 290 292 290 288 289 289 288 288 285 282 281 281 282 279 276 274 272 268 263 260 259 257 255 252 251 250 248 247 246 246 245
294 292 291 290 290 289 289 287 286 285 287 288 288 288 291 291 291 290 289 289 288 287 284 283 282 281 281 277 273 272 268 263 260 259 257 256 254 253 251 248 247 246 246 245
294 293 292 290 289 288 288 287 286 285 285 285 287 288 289 290 289 290 289 289 287 286 286 285 284 282 280 278 274 272 268 264 262 260 260 258 257 254 251 249 247 247 246 245
294 293 292 291 289 288 287 286 286 285 285 284 285 287 287 289 289 288 288 288 286 287 287 287 285 283 282 279 276 272 269 266 263 261 261 260 259 255 251 249 248 247 246 247
293 293 292 292 291 289 288 287 286 284 283 284 285 286 285 285 286 287 287 287 287 287 287 286 285 283 282 280 277 274 270 267 265 262 261 259 258 255 251 249 248 246 247 248
293 293 292 291 290 288 288 287 285 284 283 284 285 284 284 285 285 285 286 287 287 287 287 286 284 284 282 281 276 273 270 268 266 263 261 260 258 254 250 249 248 248 248 247
294 294 294 291 289 287 287 287 286 284 284 285 285 283 284 283 284 284 284 286 287 289 288 287 285 283 282 281 279 273 270 268 266 263 262 261 258 253 250 250 251 250 249 248
296 296 295 294 291 287 287 289 288 286 285 285 286 286 285 285 286 285 285 286 286 287 287 287 287 284 283 283 280 276 270 267 265 263 261 259 255 253 252 253 253 252 251 249
296 296 296 296 294 291 290 289 288 287 286 285 286 286 286 288 287 287 286 285 285 286 285 285 287 285 283 282 281 277 272 268 265 263 261 259 256 254 254 255 255 254 253 251
298 297 296 296 295 293 290 289 289 287 286 286 287 287 288 289 289 288 286 284 284 284 285 285 285 286 285 282 279 275 272 269 268 265 262 260 257 255 255 256 257 256 255 255
299 298 296 296 294 294 293 290 290 288 287 288 289 289 289 289 289 288 285 283 283 283 283 284 285 286 286 283 280 276 272 271 269 267 264 259 256 256 256 257 258 259 258 260
299 298 296 295 294 293 294 293 292 289 289 288 288 288 290 289 290 288 286 285 284 284 284 284 285 285 285 283 281 276 273 271 269 267 265 261 258 258 258 258 258 260 261 262
298 296 296 295 295 294 294 292 290 289 288 289 289 289 289 289 289 288 285 285 285 285 286 285 284 284 284 282 280 277 274 272 269 267 266 264 261 260 260 260 261 261 262 263
296 295 296 294 293 292 292 292 291 290 290 290 290 290 289 289 289 288 286 285 284 285 287 287 285 284 284 282 281 279 275 272 270 268 267 265 263 262 264 265 263 263 264 264
296 294 292 292 293 291 291 292 293 291 290 290 290 289 288 289 290 288 286 287 287 287 288 287 286 284 283 283 281 281 280 277 273 271 269 268 266 265 265 266 266 266 265 264
296 293 292 290 291 290 291 291 291 291 290 292 292 291 290 289 288 288 287 288 288 287 287 288 286 284 282 281 281 281 281 279 276 275 272 271 269 268 267 266 266 266 266 264
295 293 292 293 292 291 292 292 293 293 293 294 295 292 290 290 289 288 287 288 288 286 285 285 284 283 281 279 278 277 279 280 279 278 275 272 272 270 269 267 266 266 266 265